When you browse on this site, cookies collect data to enhance your experience and personalize the content and advertising you see.
Visit our Privacy Policy to learn more. By continuing to use the site, you agree to this use of cookies and data.
  • In Deutschland
  • Länderverzeichnis
  • Für 7 Tage
  • Wassertemperatur
  • Satellitenkarten
  • Wetterkarte
  • Widgets
  • user-avatar
    Anmelden

    Stündliche Wetter Emelyanovo

    Heute, 19 Februar, Dienstag

    Zeit Temperatur Niederschläge Wind Luftdruck Luftfeuchtigkeit
    00:00 -9°C° 0 mm 2 m/S 751 mmHg 90%
    01:00 -9°C° 0 mm 2 m/S 751 mmHg 89%
    02:00 -9°C° 0 mm 2 m/S 750 mmHg 90%
    03:00 -9°C° 0 mm 3 m/S 749 mmHg 88%
    04:00 -9°C° 0 mm 3 m/S 748 mmHg 87%
    05:00 -10°C° 0 mm 4 m/S 748 mmHg 85%
    06:00 -9°C° 0 mm 4 m/S 747 mmHg 82%
    07:00 -8°C° 0 mm 5 m/S 747 mmHg 79%
    08:00 -9°C° 0 mm 6 m/S 746 mmHg 75%
    09:00 -6°C° 0 mm 6 m/S 745 mmHg 73%
    10:00 -5°C° 0 mm 6 m/S 745 mmHg 72%
    11:00 -3°C° 0 mm 6 m/S 745 mmHg 70%
    12:00 -2°C° 0 mm 5 m/S 744 mmHg 73%
    13:00 -1°C° 0 mm 5 m/S 744 mmHg 75%
    14:00 0°C° 0 mm 4 m/S 743 mmHg 82%
    15:00 -1°C° 0 mm 4 m/S 743 mmHg 81%
    16:00 -2°C° 0 mm 4 m/S 742 mmHg 81%
    17:00 -2°C° 0 mm 4 m/S 742 mmHg 81%
    18:00 -3°C° 0 mm 4 m/S 741 mmHg 82%
    19:00 -3°C° 0 mm 4 m/S 741 mmHg 82%
    20:00 -4°C° 0 mm 5 m/S 740 mmHg 83%
    21:00 -4°C° 0 mm 5 m/S 739 mmHg 84%
    22:00 -2°C° 0 mm 5 m/S 739 mmHg 86%
    23:00 -2°C° 0 mm 5 m/S 738 mmHg 88%

    Morgen, 20 Februar, Mittwoch

    Zeit Temperatur Niederschläge Wind Luftdruck Luftfeuchtigkeit
    00:00 -1°C° 0 mm 5 m/S 737 mmHg 88%
    01:00 -1°C° 0 mm 5 m/S 736 mmHg 88%
    02:00 -1°C° 0 mm 5 m/S 736 mmHg 89%
    03:00 -1°C° 0 mm 5 m/S 735 mmHg 89%
    04:00 0°C° 0 mm 5 m/S 734 mmHg 90%
    05:00 0°C° 0 mm 5 m/S 734 mmHg 91%
    06:00 0°C° 0.1 mm 5 m/S 734 mmHg 91%
    07:00 0°C° 0.1 mm 5 m/S 733 mmHg 90%
    08:00 0°C° 0.1 mm 5 m/S 733 mmHg 90%
    09:00 0°C° 0 mm 5 m/S 733 mmHg 90%
    10:00 0°C° 0 mm 4 m/S 733 mmHg 91%
    11:00 0°C° 0 mm 4 m/S 733 mmHg 91%
    12:00 0°C° 0 mm 4 m/S 733 mmHg 90%
    13:00 0°C° 0 mm 4 m/S 733 mmHg 90%
    14:00 0°C° 0 mm 5 m/S 733 mmHg 89%
    15:00 0°C° 0 mm 4 m/S 732 mmHg 89%
    16:00 0°C° 0 mm 4 m/S 732 mmHg 89%
    17:00 -1°C° 0 mm 4 m/S 732 mmHg 89%
    18:00 -1°C° 0.1 mm 4 m/S 732 mmHg 89%
    19:00 -1°C° 0.1 mm 4 m/S 731 mmHg 89%
    20:00 -1°C° 0.1 mm 4 m/S 731 mmHg 89%
    21:00 -1°C° 0.2 mm 4 m/S 731 mmHg 88%
    22:00 -1°C° 0.2 mm 5 m/S 731 mmHg 86%
    23:00 -1°C° 0.2 mm 5 m/S 731 mmHg 85%

    übermorgen, 21 Februar, Donnerstag

    Zeit Temperatur Niederschläge Wind Luftdruck Luftfeuchtigkeit
    00:00 -3°C° 0.1 mm 4 m/S 731 mmHg 85%
    01:00 -4°C° 0.1 mm 4 m/S 731 mmHg 86%
    02:00 -5°C° 0.1 mm 3 m/S 731 mmHg 86%
    03:00 -5°C° 0.2 mm 4 m/S 731 mmHg 86%
    04:00 -5°C° 0.2 mm 4 m/S 731 mmHg 86%
    05:00 -6°C° 0.2 mm 5 m/S 732 mmHg 86%
    06:00 -6°C° 0.2 mm 5 m/S 732 mmHg 85%
    07:00 -6°C° 0.2 mm 5 m/S 732 mmHg 84%
    08:00 -6°C° 0.2 mm 5 m/S 733 mmHg 83%
    09:00 -6°C° 0.2 mm 6 m/S 734 mmHg 83%
    10:00 -6°C° 0.2 mm 6 m/S 734 mmHg 83%
    11:00 -7°C° 0.2 mm 7 m/S 735 mmHg 84%
    12:00 -7°C° 0.1 mm 7 m/S 736 mmHg 82%
    13:00 -8°C° 0.1 mm 7 m/S 737 mmHg 80%
    14:00 -8°C° 0.1 mm 7 m/S 737 mmHg 78%
    15:00 -9°C° 0.1 mm 7 m/S 738 mmHg 78%
    16:00 -10°C° 0.1 mm 6 m/S 740 mmHg 78%
    17:00 -11°C° 0.1 mm 6 m/S 741 mmHg 79%
    18:00 -11°C° 0.1 mm 6 m/S 741 mmHg 77%
    19:00 -12°C° 0.1 mm 6 m/S 742 mmHg 76%
    20:00 -14°C° 0.1 mm 6 m/S 743 mmHg 74%
    21:00 -14°C° 0 mm 6 m/S 743 mmHg 74%
    22:00 -14°C° 0 mm 6 m/S 744 mmHg 74%
    23:00 -14°C° 0 mm 6 m/S 744 mmHg 74%

    22 Februar, Freitag

    Zeit Temperatur Niederschläge Wind Luftdruck Luftfeuchtigkeit
    00:00 -14°C° 0.1 mm 6 m/S 745 mmHg 74%
    01:00 -14°C° 0.1 mm 6 m/S 745 mmHg 74%
    02:00 -15°C° 0.1 mm 6 m/S 746 mmHg 74%
    03:00 -15°C° 0.1 mm 6 m/S 746 mmHg 74%
    04:00 -15°C° 0.1 mm 6 m/S 746 mmHg 74%
    05:00 -15°C° 0.1 mm 7 m/S 747 mmHg 74%
    06:00 -15°C° 0 mm 7 m/S 747 mmHg 74%
    07:00 -15°C° 0 mm 7 m/S 748 mmHg 74%
    08:00 -15°C° 0 mm 7 m/S 748 mmHg 74%
    09:00 -15°C° 0.1 mm 7 m/S 748 mmHg 73%
    10:00 -15°C° 0.1 mm 7 m/S 749 mmHg 72%
    11:00 -15°C° 0.1 mm 7 m/S 749 mmHg 71%
    12:00 -14°C° 0.1 mm 7 m/S 749 mmHg 71%
    13:00 -15°C° 0.1 mm 8 m/S 749 mmHg 71%
    14:00 -15°C° 0.1 mm 8 m/S 750 mmHg 72%
    15:00 -14°C° 0.1 mm 7 m/S 750 mmHg 73%
    16:00 -14°C° 0.1 mm 7 m/S 751 mmHg 74%
    17:00 -14°C° 0.1 mm 7 m/S 751 mmHg 75%
    18:00 -14°C° 0.1 mm 6 m/S 752 mmHg 75%
    19:00 -14°C° 0.1 mm 6 m/S 753 mmHg 76%
    20:00 -14°C° 0.1 mm 6 m/S 753 mmHg 77%
    21:00 -15°C° 0 mm 6 m/S 754 mmHg 77%
    22:00 -14°C° 0 mm 5 m/S 754 mmHg 78%
    23:00 -14°C° 0 mm 5 m/S 755 mmHg 79%

    23 Februar, Samstag

    Zeit Temperatur Niederschläge Wind Luftdruck Luftfeuchtigkeit
    00:00 -15°C° 0 mm 5 m/S 755 mmHg 80%
    01:00 -15°C° 0 mm 5 m/S 755 mmHg 81%
    02:00 -15°C° 0 mm 5 m/S 756 mmHg 82%
    03:00 -16°C° 0 mm 4 m/S 756 mmHg 83%
    04:00 -16°C° 0 mm 4 m/S 756 mmHg 84%
    05:00 -16°C° 0 mm 4 m/S 757 mmHg 85%
    06:00 -17°C° 0 mm 4 m/S 757 mmHg 86%
    07:00 -17°C° 0 mm 4 m/S 757 mmHg 86%
    08:00 -16°C° 0 mm 3 m/S 757 mmHg 87%
    09:00 -15°C° 0 mm 3 m/S 757 mmHg 84%
    10:00 -14°C° 0 mm 3 m/S 758 mmHg 82%
    11:00 -14°C° 0 mm 3 m/S 758 mmHg 79%
    12:00 -13°C° 0 mm 3 m/S 757 mmHg 77%
    13:00 -12°C° 0 mm 3 m/S 757 mmHg 75%
    14:00 -12°C° 0 mm 3 m/S 757 mmHg 73%
    15:00 -10°C° 0 mm 2 m/S 757 mmHg 76%
    16:00 -12°C° 0 mm 2 m/S 757 mmHg 80%
    17:00 -12°C° 0 mm 2 m/S 757 mmHg 83%
    18:00 -10°C° 0 mm 1 m/S 757 mmHg 84%
    19:00 -10°C° 0 mm 1 m/S 757 mmHg 85%
    20:00 -10°C° 0 mm 1 m/S 757 mmHg 86%
    21:00 -10°C° 0 mm 1 m/S 757 mmHg 86%
    22:00 -10°C° 0 mm 1 m/S 757 mmHg 86%
    23:00 -10°C° 0 mm 0 m/S 757 mmHg 85%

    24 Februar, Sonntag

    Zeit Temperatur Niederschläge Wind Luftdruck Luftfeuchtigkeit
    00:00 -10°C° 0 mm 0 m/S 757 mmHg 85%
    01:00 -10°C° 0 mm 0 m/S 757 mmHg 84%
    02:00 -10°C° 0 mm 0 m/S 757 mmHg 84%
    03:00 -10°C° 0 mm 0 m/S 757 mmHg 84%
    04:00 -10°C° 0 mm 0 m/S 757 mmHg 84%
    05:00 -10°C° 0 mm 0 m/S 758 mmHg 84%
    06:00 -9°C° 0 mm 0 m/S 758 mmHg 85%
    07:00 -9°C° 0 mm 1 m/S 758 mmHg 85%
    08:00 -9°C° 0 mm 1 m/S 758 mmHg 86%
    09:00 -7°C° 0 mm 1 m/S 759 mmHg 85%
    10:00 -6°C° 0 mm 1 m/S 759 mmHg 84%
    11:00 -4°C° 0 mm 1 m/S 759 mmHg 83%
    12:00 -4°C° 0 mm 1 m/S 759 mmHg 83%
    13:00 -3°C° 0 mm 1 m/S 759 mmHg 82%
    14:00 -3°C° 0 mm 1 m/S 759 mmHg 82%
    15:00 -3°C° 0 mm 1 m/S 758 mmHg 84%
    16:00 -3°C° 0 mm 1 m/S 758 mmHg 87%
    17:00 -3°C° 0 mm 1 m/S 758 mmHg 89%
    18:00 -3°C° 0 mm 1 m/S 758 mmHg 90%
    19:00 -3°C° 0 mm 1 m/S 758 mmHg 91%
    20:00 -3°C° 0 mm 1 m/S 758 mmHg 92%
    21:00 -3°C° 0 mm 1 m/S 758 mmHg 93%
    22:00 -3°C° 0 mm 1 m/S 758 mmHg 94%
    23:00 -3°C° 0 mm 1 m/S 758 mmHg 94%
    Mehr zeigen